Location: Newark
(41.6500°N, 71.4833°W)
Time: 07:25:28
(UTC+00:00)

Transit 2A Rocket - Pass Details

Date: 02 February 2020
Orbit: 591 x 911 km, 66.7° (Epoch: 20 February)

Event Time Altitude Azimuth Distance (km) Brightness Sun altitude
Rises 06:50:57 0° 171° (S) 2,836 - -55.7°
Reaches altitude 10° 06:53:44 10° 153° (SSE) 1,921 - -55.2°
Maximum altitude 06:56:43 19° 108° (ESE) 1,442 - -54.8°
Drops below altitude 10° 06:59:43 10° 64° (ENE) 1,932 - -54.3°
Sets 07:02:30 0° 46° (NE) 2,858 - -53.9°
